EHI
0 0 0 0 0 0 0 0 0 0 0 0 0 0 0 0 0 0 0 4 14 27 44 67 86 95 99 100 100 100 100 98 96 94 92 86 78 67 54 41 31 22 13 8
0 0 0 0 0 0 0 0 0 0 0 0 0 0 0 0 0 0 0 3 12 27 48 70 85 93 98 100 100 100 99 97 95 92 88 81 71 55 39 28 20 13 7 4
0 0 0 0 0 0 0 0 0 0 0 0 0 0 0 0 0 0 0 1 8 26 50 71 85 93 98 100 100 100 98 95 92 88 80 70 55 35 20 12 8 5 2 0
0 0 0 0 0 0 0 0 0 0 0 0 0 0 0 0 0 0 0 0 4 22 49 71 85 94 97 98 97 96 93 89 86 80 71 58 40 22 10 5 4 2 1 0
0 0 0 0 0 0 0 0 0 0 0 0 0 0 0 0 0 0 0 1 5 20 47 71 86 93 95 92 88 84 79 74 69 65 58 46 31 17 8 3 2 1 0 0
0 0 0 0 0 0 0 0 0 0 0 0 0 0 0 0 0 0 1 3 10 26 50 73 86 89 87 80 72 66 60 52 46 42 38 30 21 12 6 2 1 0 0 0
0 0 0 0 0 0 0 0 0 0 0 0 0 0 0 0 0 0 1 6 17 35 58 76 84 81 72 61 53 46 39 32 27 23 19 15 11 6 3 1 0 0 0 0
0 0 0 0 0 0 0 0 0 0 0 0 0 0 0 0 0 0 1 7 20 42 63 76 78 69 53 41 34 28 22 18 15 12 9 7 5 2 1 0 0 0 0 0
0 0 0 0 0 0 0 0 0 0 0 0 0 0 0 0 0 0 2 7 21 46 66 74 70 55 37 26 21 16 12 9 8 6 5 3 2 0 0 0 0 0 0 0
0 0 0 0 0 0 0 0 0 0 0 0 0 0 0 0 0 1 2 8 24 50 68 70 60 43 26 18 13 10 6 4 4 3 3 1 0 0 0 0 0 0 0 0
0 0 0 0 0 0 0 0 0 0 0 0 0 0 0 0 0 1 4 13 31 54 65 62 49 30 17 11 7 4 2 1 1 1 1 0 0 0 0 0 0 0 0 0
0 0 0 0 0 0 0 0 0 0 0 0 0 0 0 0 0 2 6 16 34 50 55 49 34 18 9 5 2 1 0 0 0 0 0 0 0 0 0 0 0 0 0 0
0 0 0 0 0 0 0 0 0 0 0 0 0 0 0 0 1 4 7 13 25 37 40 33 21 11 6 2 0 0 0 0 0 0 0 0 0 0 0 0 0 0 0 0
0 0 0 0 0 0 0 0 0 0 0 0 0 0 1 2 4 8 11 12 18 26 30 25 16 9 5 1 0 0 0 0 0 0 0 0 0 0 0 0 0 0 0 0
0 0 0 0 0 0 0 0 0 0 0 0 0 1 4 6 10 16 20 20 21 26 27 20 13 8 4 1 0 0 0 0 0 0 0 0 0 0 0 0 0 0 0 0
0 0 0 0 0 0 0 0 0 0 0 0 0 2 5 8 12 19 24 25 24 24 21 14 8 4 2 1 0 0 0 0 0 0 0 0 0 0 0 0 0 0 0 0
0 0 0 0 0 0 0 0 0 0 0 0 1 2 4 6 9 13 16 18 17 15 11 7 3 1 1 0 0 0 0 0 0 0 0 0 0 0 0 0 0 0 0 0
0 0 0 0 0 0 0 0 0 0 0 0 0 1 1 2 4 5 6 7 7 5 3 1 0 0 0 0 0 0 0 0 0 0 0 0 0 0 0 0 0 0 0 0
0 0 0 0 0 0 0 0 0 0 0 0 0 0 0 0 0 1 1 1 1 1 0 0 0 0 0 0 0 0 0 0 0 0 0 0 0 0 0 0 0 0 0 0
0 0 0 0 0 0 0 0 0 0 0 0 0 0 0 0 0 0 0 0 0 0 0 0 0 0 0 0 0 0 0 0 0 0 0 0 0 0 0 0 0 0 0 0
0 0 0 0 0 0 0 0 0 0 0 0 0 0 0 0 0 0 0 0 0 0 0 0 0 0 0 0 0 0 0 0 0 0 0 0 0 0 0 0 0 0 0 0
0 0 0 0 0 0 0 0 0 0 0 0 0 0 0 0 0 0 0 0 0 0 0 0 0 0 0 0 0 0 0 0 0 0 0 0 0 0 0 0 0 0 0 0
0 0 0 0 0 0 0 0 0 0 0 0 0 0 0 0 0 0 0 0 0 0 0 0 0 0 0 0 0 0 0 0 0 0 0 0 0 0 0 0 0 0 0 0
0 0 0 0 0 0 0 0 0 0 0 0 0 0 0 0 0 0 0 0 0 0 0 0 0 0 0 0 0 0 0 0 0 0 0 0 0 0 0 0 0 0 0 0
0 0 0 0 0 0 0 0 0 0 0 0 0 0 0 0 0 0 0 0 0 0 0 0 0 0 0 0 0 0 0 0 0 0 0 0 0 0 0 0 0 0 0 0
0 0 0 0 0 0 0 0 0 0 0 0 0 0 0 0 0 0 0 0 0 0 0 0 0 0 0 0 0 0 0 0 0 0 0 0 0 0 0 0 0 0 0 0
Wind_Speed
15 15 16 18 20 20 20 22 20 18 20 20 19 17 15 13 12 13 13 14 12 10 7 8 12 15 14 12 12 10 10 10 8 7 7 6 6 5 5 6 6 6 6 6
16 19 20 19 19 20 21 22 21 17 15 12 12 13 13 13 15 14 14 13 11 7 6 10 11 13 14 13 12 10 9 10 8 6 4 5 6 5 6 6 5 6 6 4
22 18 21 20 19 18 19 18 17 17 17 15 15 17 16 16 19 19 18 16 14 10 10 13 14 14 14 13 12 10 9 9 7 7 5 6 5 6 6 6 4 5 5 5
21 22 16 13 17 17 15 14 16 17 16 15 17 17 17 18 21 22 21 18 16 13 12 13 15 14 13 12 10 9 9 8 7 7 7 9 7 7 7 6 5 5 4 4
19 19 18 16 14 14 14 14 15 16 15 17 17 18 16 17 19 17 18 18 15 14 12 14 14 14 13 11 10 9 9 8 7 6 6 6 5 5 5 6 6 5 4 4
20 18 16 17 15 13 12 13 13 13 13 17 18 19 19 17 18 17 13 11 10 9 10 12 13 14 13 11 10 9 9 8 6 6 5 5 6 7 7 6 5 4 4 4
22 21 17 13 13 14 14 11 9 12 13 17 19 19 17 17 16 10 3 5 4 7 11 14 16 15 13 13 11 10 10 8 7 7 6 6 7 7 6 5 4 2 3 5
20 19 21 16 14 13 14 15 13 12 13 12 12 10 7 6 3 1 3 2 2 6 11 14 16 15 13 13 12 11 10 9 7 7 7 6 6 4 4 3 3 1 3 6
15 16 20 22 19 17 17 15 16 15 17 16 14 17 13 4 6 6 6 4 4 7 12 15 16 15 13 12 11 11 10 9 8 7 6 5 4 5 6 3 2 3 3 3
16 15 15 13 19 20 18 15 10 12 13 15 15 15 9 9 5 2 1 0 2 8 12 14 15 13 12 11 10 10 9 9 8 7 6 6 5 5 4 3 5 5 3 3
9 11 15 12 13 15 15 16 14 12 12 13 13 8 3 6 5 4 2 2 4 12 14 14 13 13 12 12 11 10 9 8 7 6 5 6 5 5 4 3 3 3 3 2
7 8 13 16 13 13 15 16 15 12 13 13 13 11 6 7 10 11 11 9 9 13 14 15 15 14 13 12 11 10 8 7 6 6 6 6 5 4 3 3 4 3 1 1
10 6 10 13 14 14 14 15 15 12 10 11 13 10 4 10 13 13 13 13 10 9 13 14 14 14 13 12 10 9 7 6 6 7 7 5 4 3 4 4 3 2 1 2
6 7 11 14 9 6 10 12 14 14 12 12 13 12 6 9 10 10 9 7 7 6 8 12 13 13 13 12 11 9 7 6 7 7 6 6 5 4 3 2 2 2 2 2
5 10 14 17 19 15 13 13 11 11 11 12 13 13 10 13 11 11 11 10 8 6 7 10 12 12 12 12 11 10 9 9 8 8 7 6 4 2 2 2 2 2 3 4
6 8 13 16 17 17 17 15 15 15 15 16 16 10 13 14 15 15 14 12 10 8 8 10 12 13 12 12 12 11 11 9 8 8 6 4 3 2 3 3 2 3 4 5
5 7 10 14 16 17 19 16 16 15 11 11 9 9 12 14 17 16 15 15 13 10 10 12 12 11 11 11 11 11 10 8 7 6 4 2 1 1 2 3 4 5 5 5
7 9 8 11 13 18 10 5 5 5 8 11 9 11 11 12 16 17 16 14 14 14 13 13 13 13 12 12 11 9 8 6 5 3 2 1 1 2 3 5 6 6 5 4
8 8 8 9 13 15 3 7 6 4 7 13 10 9 7 5 9 15 15 14 13 13 13 13 13 13 12 10 8 7 6 5 4 3 3 3 4 5 6 6 5 5 4 4
8 8 9 10 12 8 6 6 6 5 3 12 10 9 8 8 3 6 10 12 13 13 12 12 12 11 10 7 6 6 5 4 4 4 4 4 4 4 6 5 5 5 4 4
7 8 11 12 11 0 6 7 7 5 5 9 8 8 8 7 9 10 11 12 12 13 12 11 10 8 7 5 4 5 5 5 4 4 5 4 3 3 5 4 4 4 5 4
4 4 6 7 9 1 11 8 8 7 7 7 7 8 11 14 14 13 12 12 12 11 10 9 7 6 4 4 5 6 5 5 4 5 5 4 4 5 5 4 3 4 5 4
4 3 2 3 3 6 9 9 8 8 7 7 6 8 13 15 14 13 13 11 10 9 8 7 7 6 5 4 5 6 5 4 4 5 4 4 5 5 5 5 5 5 4 5
4 5 4 1 7 9 10 10 10 9 8 8 8 10 13 15 14 13 11 10 9 8 8 6 7 6 6 6 6 5 5 4 4 3 2 3 4 5 5 4 5 5 6 6
5 4 4 2 4 7 10 9 9 10 10 11 12 13 14 15 14 12 11 10 8 7 6 6 6 7 7 6 6 6 5 4 3 3 3 4 5 4 4 5 5 6 6 5
3 3 3 2 3 4 6 7 8 9 10 12 14 14 13 12 13 12 11 9 8 7 6 6 7 7 8 8 7 6 5 5 4 4 4 4 4 4 4 4 4 4 4 3
Wind_Direction
208 222 225 226 227 240 253 262 262 253 244 241 229 234 242 246 238 225 227 236 229 217 189 162 152 154 150 149 154 158 160 154 157 158 162 153 142 130 114 107 101 89 79 69
217 224 234 238 236 234 243 257 269 277 277 271 257 246 246 255 258 252 241 235 233 223 168 145 155 157 155 155 156 159 160 159 165 156 151 144 136 129 112 102 99 98 91 85
229 230 223 232 245 244 243 251 263 272 280 276 270 261 256 258 261 257 250 242 238 217 177 163 166 160 158 158 160 163 160 157 160 144 134 126 114 118 121 124 116 104 107 99
233 242 247 236 237 243 247 251 260 268 271 268 265 264 250 245 245 243 240 236 236 226 186 175 164 159 157 154 151 150 148 146 143 143 153 155 157 153 142 136 128 123 118 115
232 234 240 239 242 248 252 256 257 256 258 265 266 270 267 262 255 247 236 225 226 227 189 170 162 154 147 145 141 134 130 130 138 147 151 153 145 130 122 118 131 137 133 136
249 245 234 239 233 235 249 254 259 264 263 258 254 258 263 259 259 259 236 208 214 210 169 151 145 136 133 130 129 130 128 127 131 131 130 130 128 125 129 135 149 162 154 151
245 250 245 233 239 225 225 238 243 239 236 247 247 246 254 255 259 266 230 169 150 158 143 136 138 136 136 135 132 132 131 127 125 123 118 114 115 119 128 137 148 182 153 130
232 232 232 227 223 240 221 225 241 257 264 273 282 266 268 281 284 24 66 92 141 140 135 138 138 137 138 139 138 139 137 128 122 116 113 115 130 135 119 93 123 109 65 93
247 240 221 216 211 222 243 232 236 252 268 278 283 292 295 256 207 204 216 220 218 161 140 137 135 136 140 142 143 143 135 126 122 118 114 112 102 95 104 103 75 90 74 105
256 279 285 237 205 208 227 246 251 251 263 274 281 283 304 353 356 358 292 36 64 114 116 124 129 132 134 134 131 126 126 125 122 123 130 121 106 105 116 108 77 71 69 60
258 271 275 265 216 218 216 228 245 262 267 271 272 274 34 17 11 357 341 22 78 111 120 123 125 125 125 127 128 127 126 125 125 124 111 106 102 101 102 99 107 96 74 51
279 269 266 265 261 235 240 241 234 239 251 262 273 282 335 26 29 23 18 28 72 109 122 128 129 128 130 131 131 128 124 121 118 109 98 91 86 87 93 87 76 71 74 312
334 272 256 256 259 254 246 248 255 256 255 255 263 275 10 36 31 31 33 32 50 93 118 128 132 134 135 134 130 124 119 115 108 103 98 94 93 81 63 64 59 25 2 329
315 284 267 262 272 316 294 280 271 264 259 260 267 290 343 49 35 21 31 44 57 90 120 132 133 134 134 129 125 118 106 94 90 89 88 78 66 58 47 39 25 356 341 322
266 268 267 273 281 279 272 275 282 285 287 291 298 307 1 44 37 28 30 34 46 75 112 125 127 126 125 120 113 105 92 81 79 78 75 67 55 36 11 2 351 346 340 342
218 276 284 277 274 278 277 275 275 274 277 283 287 310 47 41 39 37 30 29 39 47 93 112 117 118 119 115 110 101 91 83 77 76 73 63 37 13 343 333 358 11 20 28
277 266 267 270 273 274 266 272 279 283 307 326 332 30 40 43 42 37 32 35 38 50 81 95 101 102 102 102 102 98 94 88 85 82 80 71 18 347 356 6 39 41 36 32
274 287 285 273 270 261 273 335 351 350 23 15 29 42 49 62 66 50 43 47 52 58 71 82 89 91 93 94 93 93 93 94 97 100 98 62 20 33 43 48 45 41 30 22
224 248 265 269 263 258 262 36 21 1 51 30 26 25 31 61 85 58 47 57 64 71 77 82 88 93 93 92 95 98 97 100 102 95 76 54 45 49 55 51 39 35 20 19
213 220 241 255 263 272 71 27 4 309 104 32 18 8 358 343 344 71 63 72 76 79 83 89 91 93 94 94 97 102 105 105 100 92 80 74 67 65 65 53 35 22 16 23
226 224 235 247 256 352 18 342 322 294 38 15 15 17 26 51 77 99 91 86 88 90 92 93 94 95 99 105 106 104 105 98 93 92 86 72 58 90 85 67 48 25 13 22
236 252 261 264 259 162 18 22 30 17 12 22 41 65 90 100 103 103 99 97 98 98 98 100 100 101 107 114 109 100 92 91 92 90 87 74 46 45 67 63 52 38 11 17
300 6 1 17 58 67 51 54 39 24 27 39 62 87 112 113 112 110 108 106 107 109 110 112 113 114 116 115 109 101 103 107 103 95 92 90 86 73 49 43 43 36 25 21
333 348 314 16 93 76 63 58 52 49 55 65 82 102 113 114 115 115 115 115 118 121 123 126 121 115 110 105 95 91 91 90 93 95 105 106 95 90 74 50 43 43 28 20
317 314 305 309 85 85 67 63 69 73 80 86 92 103 112 117 118 119 119 123 129 133 132 128 120 111 104 100 93 88 83 78 75 67 67 83 81 75 78 70 47 48 62 42
325 326 317 8 64 89 92 85 91 95 99 106 109 110 115 118 121 123 127 132 134 133 133 124 114 105 98 92 82 71 64 54 37 42 47 67 72 61 69 93 109 80 90 131